Temperature
13 13 14 14 15 15 15 16 16 16 17 17 17 17 17 17 16 16 16 16 16 17 17 17 17 17 17 17 17 17 17 17 17 17 16 16 16 16
12 13 13 14 14 14 15 15 15 16 16 17 17 17 17 16 16 16 16 16 16 16 16 16 17 17 17 17 17 17 17 17 17 17 16 16 16 16
12 12 12 13 13 13 14 14 15 15 15 16 16 16 16 16 16 15 15 15 15 16 16 16 16 16 17 17 17 17 17 17 17 17 16 16 16 16
11 11 12 12 12 13 13 13 14 14 14 15 15 15 15 15 15 15 15 15 15 15 15 16 16 16 16 16 17 17 17 17 16 16 16 16 16 16
11 11 11 11 11 12 12 12 13 13 14 14 14 14 15 15 15 14 14 14 14 14 15 15 15 15 16 16 16 16 16 16 16 16 16 16 16 16
11 11 11 11 11 11 11 12 12 12 13 13 14 14 14 14 14 14 14 13 13 13 14 14 14 14 15 15 15 15 15 16 16 16 16 16 16 16
11 11 11 11 11 11 11 11 11 11 12 12 13 13 13 13 13 14 13 13 12 13 13 13 13 13 14 14 14 14 15 15 15 15 15 15 15 15
10 10 10 11 11 11 11 11 11 11 11 11 12 12 13 13 13 13 13 12 12 12 12 12 12 12 13 13 13 14 14 14 14 14 14 14 14 14
10 10 10 10 11 11 11 10 11 11 11 11 11 12 12 13 13 13 13 13 13 12 12 11 11 12 12 12 12 13 13 13 13 14 14 14 14 14
9 10 10 10 10 10 10 10 10 11 11 11 11 12 12 12 12 13 13 12 12 12 12 11 11 11 11 12 12 12 12 12 12 13 13 13 13 13
9 9 9 10 10 10 10 10 10 10 10 11 11 11 11 12 12 12 12 12 12 11 11 11 11 11 11 11 11 11 11 11 12 12 12 12 12 12
9 9 9 9 10 10 10 10 10 10 10 10 11 11 11 11 11 12 12 12 12 11 11 11 11 11 10 10 10 11 11 11 11 11 11 11 11 11
8 9 9 9 10 10 10 10 10 10 10 10 10 10 11 11 11 11 12 12 12 12 12 11 11 11 11 10 10 10 10 10 10 10 10 10 10 10
8 8 9 9 9 10 10 10 10 10 10 10 10 10 11 11 11 11 11 11 12 12 12 12 12 11 11 11 10 9 10 10 10 10 10 10 9 9
8 8 8 9 9 9 9 10 9 9 9 9 10 10 11 11 11 11 11 11 11 11 11 11 12 11 11 12 11 10 9 9 9 9 9 9 9 9
7 8 8 9 9 9 9 9 9 9 9 9 10 10 10 11 11 11 11 11 10 10 10 10 11 11 11 11 11 10 10 9 9 9 9 9 9 9
7 7 8 8 9 9 9 9 9 9 9 9 9 10 10 10 10 10 11 11 10 10 10 10 10 10 10 11 10 10 9 9 9 9 8 8 8 8
7 7 8 8 8 9 9 9 9 9 9 9 9 10 10 10 10 10 10 10 10 10 10 10 10 10 9 9 10 10 9 9 9 9 8 8 8 8
7 8 8 8 9 9 9 9 9 9 9 9 9 9 10 10 9 9 9 10 10 10 10 10 10 10 9 9 9 9 9 9 9 9 8 9 9 9
8 8 8 9 9 9 9 9 9 9 9 9 9 9 9 9 9 9 9 9 9 9 9 9 10 10 10 10 10 9 9 9 9 9 9 9 9 9
8 8 8 9 9 9 9 9 9 9 9 9 9 9 9 9 9 9 9 9 9 9 9 9 10 10 10 10 10 10 9 9 9 9 9 9 9 9
8 8 8 9 9 9 9 9 9 9 9 9 9 9 9 9 9 9 9 9 9 9 9 9 10 10 10 10 10 9 9 9 9 9 10 10 10 10
8 8 8 8 8 8 8 9 8 8 8 8 8 8 8 8 8 9 9 9 9 9 9 9 10 10 10 10 10 10 9 9 10 10 10 10 10 11
Wind_Speed
4 5 5 3 2 4 4 3 3 3 4 4 4 5 6 9 12 9 9 8 6 4 3 2 3 5 8 11 13 14 16 18 19 20 22 23 23 24
5 5 5 4 3 3 4 3 3 3 3 3 3 5 6 8 10 10 10 11 8 6 4 3 2 1 3 5 8 10 11 13 15 16 18 19 20 20
7 7 7 6 4 3 3 3 2 2 3 3 2 5 6 7 6 8 10 9 7 8 7 6 5 4 2 2 4 6 7 8 10 12 13 15 16 17
9 8 8 7 7 5 4 4 3 2 3 4 3 4 6 7 7 7 6 8 9 9 10 9 9 8 7 5 3 3 4 5 5 7 8 10 11 12
9 9 8 8 7 6 6 5 4 4 2 4 4 3 4 7 7 6 6 6 8 10 11 11 11 12 11 10 9 8 7 6 5 5 5 5 5 5
10 9 9 9 8 7 7 7 5 5 4 5 5 4 4 6 6 7 6 5 5 7 8 10 11 13 13 13 12 11 10 9 9 8 7 6 5 5
11 10 10 11 12 9 7 7 7 6 5 5 6 5 5 6 7 6 7 6 5 5 6 5 5 6 8 11 11 12 12 12 12 11 11 10 10 10
11 11 11 10 12 13 12 10 9 8 7 6 6 6 7 6 6 7 7 8 5 5 5 5 5 6 6 8 10 13 14 14 14 15 15 15 15 14
10 9 12 13 14 11 12 13 11 11 10 7 7 7 6 8 7 8 9 9 5 7 7 5 5 6 6 9 12 14 15 16 16 17 18 18 18 18
10 10 10 9 9 10 11 11 10 10 11 9 7 7 6 6 8 7 7 6 7 6 6 5 5 5 6 8 10 13 15 16 17 19 20 21 21 21
11 11 11 11 12 11 9 9 9 8 12 13 12 9 9 8 7 7 8 10 7 5 3 5 6 6 5 5 8 11 14 15 17 18 19 20 21 20
9 9 12 12 13 13 9 8 8 7 7 8 9 9 9 9 11 10 10 11 8 5 5 6 8 6 4 3 4 7 9 11 14 14 14 13 12 12
7 7 8 12 13 15 11 7 7 5 5 6 7 7 7 8 9 10 9 10 10 5 9 7 8 6 5 5 4 5 6 6 7 8 8 8 8 10
5 5 5 11 13 15 11 8 8 5 4 5 6 7 7 8 8 9 9 8 6 7 12 9 7 7 7 7 5 6 6 6 6 5 7 8 9 12
3 2 4 9 11 10 11 10 9 5 5 6 6 7 7 8 8 7 7 6 6 8 13 8 8 8 8 7 8 8 6 6 5 5 5 4 5 7
5 4 7 9 7 7 8 8 7 6 6 6 6 5 5 6 7 7 7 8 7 5 5 8 8 10 7 9 10 9 7 6 7 6 5 4 7 9
7 6 5 5 6 6 7 8 8 8 8 6 6 6 6 7 7 8 8 9 7 8 7 5 4 5 7 9 10 9 7 7 7 6 6 5 5 5
5 6 7 7 8 8 8 8 8 8 8 7 6 7 7 8 8 8 9 9 10 9 9 8 8 7 6 4 7 9 7 7 7 7 6 5 5 5
4 6 6 7 7 7 7 7 8 7 7 7 7 7 8 8 9 10 10 10 9 10 9 9 10 9 10 8 5 7 8 8 7 6 6 5 6 6
6 6 6 6 7 6 6 6 6 6 7 7 7 8 8 9 10 11 11 10 10 10 9 9 9 8 8 8 6 5 10 9 7 7 6 4 4 7
6 5 5 5 5 5 5 5 5 6 7 7 7 8 9 9 10 11 10 13 11 10 11 9 8 9 6 7 8 6 5 8 10 6 7 6 5 5
3 3 3 3 3 3 4 4 5 6 7 7 7 8 9 9 10 12 12 12 10 10 9 8 8 7 6 8 9 9 6 5 5 7 6 6 5 6
2 1 1 2 2 3 3 5 6 6 6 7 7 9 10 10 9 10 11 11 10 10 10 9 8 6 6 8 9 9 9 8 6 5 4 8 9 10
Wind_Direction
241 240 242 253 274 294 286 270 244 229 216 192 167 153 132 122 147 140 133 141 140 144 155 186 212 220 221 223 224 224 224 224 224 224 224 225 226 226
225 235 239 236 239 267 286 275 258 236 232 208 194 152 142 139 148 130 129 130 115 109 98 85 81 161 205 213 215 219 222 223 221 220 221 223 225 226
221 218 223 223 225 230 251 268 274 254 240 239 177 138 128 126 135 132 140 129 108 97 91 81 75 76 96 157 193 203 207 209 212 215 219 223 227 228
220 219 217 218 215 222 222 233 242 238 222 227 202 166 146 142 148 146 140 126 114 104 95 85 80 76 76 86 113 141 161 176 188 199 209 217 223 227
220 219 215 212 215 214 212 218 221 227 211 208 216 198 168 154 149 142 126 124 123 119 101 87 81 78 75 78 85 93 103 114 127 142 158 175 190 203
221 221 218 212 211 209 214 212 210 212 217 214 208 197 184 166 159 152 145 139 133 123 101 98 92 80 74 74 78 85 92 99 104 107 110 114 120 127
225 221 221 217 212 203 212 205 201 204 212 217 212 201 191 177 180 172 160 145 125 130 124 115 106 86 73 67 72 81 90 94 98 102 104 106 106 105
230 222 224 223 212 202 206 203 198 202 207 213 217 209 201 192 188 174 161 156 154 159 135 115 106 91 75 68 76 87 91 95 97 99 100 100 100 99
236 224 227 224 203 198 203 206 209 215 211 209 214 215 206 195 188 182 177 176 157 155 133 114 100 90 80 77 84 91 95 97 99 98 97 97 96 95
238 225 220 233 225 202 201 204 207 212 210 214 222 219 218 201 192 188 178 150 124 141 136 125 123 107 96 85 85 95 100 103 103 102 101 100 97 93
235 228 218 216 220 203 201 204 209 215 215 213 209 209 197 186 179 167 166 156 148 154 149 128 136 122 106 99 95 99 104 108 109 110 109 108 103 95
232 230 222 214 208 198 200 204 211 217 222 213 206 207 200 192 188 186 179 169 155 157 170 142 152 144 125 122 129 127 113 110 114 116 117 117 114 107
230 222 218 204 201 198 201 205 209 214 218 213 201 200 200 195 192 192 191 180 170 162 167 155 163 158 135 141 150 157 149 147 138 127 122 119 128 128
231 223 206 189 193 193 194 190 174 183 216 212 203 200 200 197 193 189 189 187 177 164 167 164 160 165 145 145 149 162 162 164 161 149 144 130 125 134
235 195 178 174 180 192 203 185 175 197 218 222 216 204 199 193 181 174 167 154 138 150 165 169 154 156 153 149 149 157 159 167 164 151 152 151 145 140
220 188 171 168 185 198 186 190 202 215 215 219 221 202 185 178 172 163 157 146 134 133 155 168 159 157 153 147 148 155 160 160 164 159 156 156 161 162
186 179 182 179 196 206 199 193 201 209 217 218 208 193 184 175 168 160 156 153 152 158 161 167 159 147 144 148 152 157 157 149 155 158 156 160 165 159
177 194 199 201 206 210 210 203 202 206 205 201 197 188 183 176 167 163 162 164 162 160 163 164 157 142 135 127 152 157 155 151 152 159 165 160 164 161
197 208 209 214 221 221 215 209 205 202 195 189 188 185 178 173 169 167 168 166 162 162 164 164 163 160 159 158 164 167 155 151 154 170 184 174 167 163
224 223 217 218 223 223 217 210 204 193 185 181 182 180 173 172 172 170 170 165 160 159 160 166 169 168 166 158 148 160 165 155 161 175 185 168 137 144
220 227 225 222 217 216 212 202 194 184 177 175 179 178 172 170 170 167 164 161 159 161 165 169 171 166 149 135 140 146 151 162 170 174 174 157 151 155
233 215 211 214 213 206 194 192 186 177 175 176 176 174 168 167 168 163 160 161 163 161 158 157 159 164 159 157 157 155 150 145 143 152 161 164 166 181
240 207 183 201 206 196 195 190 181 175 173 167 164 165 163 162 162 159 159 161 162 159 155 158 162 169 174 169 160 158 157 159 162 161 166 156 138 130
Height
1465 1466 1467 1469 1471 1474 1476 1479 1481 1482 1484 1487 1489 1491 1493 1495 1496 1497 1499 1499 1501 1502 1503 1504 1505 1507 1510 1512 1515 1517 1520 1523 1526 1529 1533 1536 1539 1541
1460 1461 1462 1463 1465 1468 1470 1473 1475 1478 1480 1483 1485 1487 1490 1491 1493 1494 1495 1496 1497 1499 1499 1500 1501 1503 1505 1507 1510 1512 1515 1517 1520 1523 1527 1529 1532 1535
1455 1456 1456 1458 1459 1461 1463 1466 1469 1472 1474 1478 1481 1483 1486 1487 1490 1492 1493 1494 1495 1496 1497 1497 1498 1499 1501 1503 1505 1507 1510 1512 1515 1518 1521 1524 1526 1529
1449 1450 1451 1453 1454 1455 1457 1460 1463 1466 1470 1473 1476 1479 1482 1484 1487 1489 1490 1491 1492 1493 1494 1494 1495 1496 1498 1499 1501 1503 1505 1507 1510 1513 1516 1518 1521 1523
1443 1445 1446 1447 1449 1450 1452 1454 1457 1460 1464 1468 1470 1473 1477 1480 1483 1486 1487 1488 1490 1491 1492 1492 1493 1494 1495 1496 1497 1499 1501 1503 1506 1508 1511 1513 1515 1517
1437 1438 1440 1442 1444 1445 1447 1449 1451 1454 1458 1462 1465 1468 1472 1475 1479 1481 1484 1486 1488 1489 1490 1491 1491 1492 1493 1494 1495 1496 1498 1500 1502 1504 1507 1509 1511 1513
1429 1432 1434 1436 1438 1440 1442 1444 1446 1448 1451 1455 1459 1462 1466 1469 1473 1477 1480 1483 1485 1486 1488 1489 1490 1491 1491 1492 1493 1494 1496 1497 1499 1501 1503 1505 1507 1509
1422 1424 1428 1430 1433 1435 1437 1439 1442 1444 1446 1449 1453 1456 1459 1464 1468 1472 1476 1479 1481 1484 1485 1487 1489 1490 1491 1491 1492 1493 1494 1496 1498 1499 1501 1503 1504 1506
1414 1418 1421 1425 1427 1429 1432 1434 1436 1439 1442 1444 1447 1450 1454 1459 1463 1467 1471 1474 1477 1479 1483 1485 1487 1488 1490 1491 1492 1493 1494 1495 1497 1498 1499 1501 1503 1504
1407 1411 1414 1418 1422 1424 1427 1429 1431 1433 1436 1439 1442 1446 1450 1454 1459 1463 1466 1471 1474 1477 1480 1483 1485 1487 1489 1490 1492 1493 1494 1495 1496 1498 1499 1500 1502 1503
1400 1404 1408 1412 1416 1420 1422 1424 1427 1430 1432 1435 1439 1442 1445 1449 1453 1457 1461 1465 1468 1473 1476 1479 1482 1485 1487 1489 1491 1493 1494 1495 1496 1498 1499 1500 1502 1503
1394 1398 1402 1406 1410 1414 1417 1420 1423 1425 1428 1431 1434 1437 1441 1444 1448 1452 1456 1459 1463 1468 1472 1476 1479 1482 1485 1488 1490 1492 1494 1495 1497 1498 1499 1501 1502 1503
1388 1392 1397 1401 1405 1409 1413 1416 1419 1422 1424 1427 1429 1433 1436 1440 1443 1447 1451 1455 1458 1462 1466 1471 1474 1478 1481 1484 1488 1491 1493 1495 1497 1498 1500 1501 1503 1504
1383 1388 1392 1396 1400 1404 1408 1411 1415 1418 1420 1423 1425 1428 1431 1435 1438 1442 1447 1451 1456 1459 1463 1467 1470 1473 1477 1480 1484 1488 1492 1494 1496 1498 1500 1502 1503 1505
1380 1384 1388 1392 1396 1400 1404 1407 1410 1413 1416 1418 1421 1424 1427 1430 1434 1438 1443 1448 1452 1456 1460 1464 1468 1471 1475 1477 1480 1485 1489 1493 1495 1498 1500 1502 1504 1505
1377 1381 1385 1388 1392 1396 1400 1403 1406 1409 1411 1414 1417 1420 1423 1426 1429 1434 1438 1442 1447 1452 1457 1462 1466 1470 1473 1476 1479 1483 1487 1490 1494 1497 1500 1502 1504 1506
1374 1379 1382 1385 1389 1392 1395 1398 1401 1403 1406 1409 1412 1415 1418 1421 1425 1429 1433 1438 1442 1447 1453 1458 1464 1468 1472 1475 1478 1482 1486 1490 1493 1496 1499 1502 1504 1506
1373 1376 1379 1382 1385 1389 1391 1394 1396 1399 1401 1404 1407 1410 1413 1417 1420 1425 1429 1434 1439 1444 1449 1455 1460 1465 1471 1475 1478 1481 1485 1488 1492 1496 1499 1502 1504 1506
1371 1374 1377 1380 1382 1385 1388 1390 1392 1394 1397 1399 1402 1405 1409 1412 1416 1420 1425 1430 1435 1441 1447 1452 1457 1461 1466 1471 1477 1481 1483 1487 1491 1495 1499 1501 1503 1505
1370 1372 1375 1377 1379 1381 1383 1385 1387 1389 1392 1394 1398 1401 1404 1408 1412 1417 1422 1426 1432 1438 1444 1450 1455 1459 1464 1468 1472 1478 1483 1486 1490 1494 1497 1501 1503 1506
1369 1371 1372 1374 1375 1377 1379 1380 1382 1384 1387 1389 1393 1397 1400 1404 1408 1413 1419 1424 1430 1436 1441 1447 1453 1459 1464 1469 1473 1477 1482 1486 1490 1493 1496 1499 1502 1504
1368 1369 1370 1371 1372 1373 1374 1376 1378 1380 1382 1385 1389 1392 1396 1400 1405 1411 1416 1422 1428 1434 1440 1446 1453 1458 1463 1467 1471 1475 1480 1485 1489 1493 1496 1499 1500 1502
1366 1367 1367 1368 1369 1369 1370 1372 1373 1375 1378 1381 1385 1389 1393 1398 1404 1409 1415 1421 1427 1433 1439 1445 1452 1457 1462 1466 1470 1474 1478 1482 1487 1490 1494 1497 1500 1502